| time (UTC) | temp F | wind direction | speed knots | gust knots | rain 1hr in | rain 24hr in | rain mn in | humidity % | barometer mb |
| 20260906220007 | 78 | 124 | 5.2 | 13.9 | 0.00 | 0.00 | 0.00 | 33 | 1025.7 |
| 20260906214503 | 79 | 135 | 7.8 | 16.5 | 0.00 | 0.00 | 0.00 | 32 | 1025.7 |
| 20260906213016 | 80 | 163 | 8.7 | 16.5 | 0.00 | 0.00 | 0.00 | 31 | 1025.8 |
| 20260906211519 | 79 | 145 | 8.7 | 17.4 | 0.00 | 0.00 | 0.00 | 32 | 1025.9 |
| 20260906210009 | 80 | 133 | 10.4 | 17.4 | 0.00 | 0.00 | 0.00 | 30 | 1026.0 |
| 20260906204512 | 80 | 117 | 9.6 | 16.5 | 0.00 | 0.00 | 0.00 | 31 | 1026.0 |
| 20260906203006 | 78 | 192 | 7.8 | 15.6 | 0.00 | 0.00 | 0.00 | 32 | 1026.1 |
| 20260906201502 | 80 | 162 | 9.6 | 18.2 | 0.00 | 0.00 | 0.00 | 31 | 1026.2 |
| 20260906200003 | 81 | 149 | 7.8 | 15.6 | 0.00 | 0.00 | 0.00 | 31 | 1026.3 |
| 20260906194503 | 80 | 168 | 9.6 | 16.5 | 0.00 | 0.00 | 0.00 | 33 | 1026.6 |
| 20260906193003 | 80 | 164 | 10.4 | 18.2 | 0.00 | 0.00 | 0.00 | 32 | 1026.8 |
| 20260906191505 | 80 | 130 | 9.6 | 18.2 | 0.00 | 0.00 | 0.00 | 32 | 1026.8 |
| 20260906190002 | 81 | 168 | 7.8 | 18.2 | 0.00 | 0.00 | 0.00 | 31 | 1027.1 |
| 20260906184504 | 81 | 143 | 7.0 | 14.8 | 0.00 | 0.00 | 0.00 | 32 | 1027.2 |
| 20260906183010 | 80 | 170 | 7.0 | 15.6 | 0.00 | 0.00 | 0.00 | 34 | 1027.4 |
| 20260906181502 | 80 | 185 | 4.3 | 13.0 | 0.00 | 0.00 | 0.00 | 34 | 1027.6 |
| 20260906180007 | 79 | 131 | 7.0 | 19.1 | 0.00 | 0.00 | 0.00 | 33 | 1027.8 |
| 20260906174503 | 78 | 140 | 5.2 | 15.6 | 0.00 | 0.00 | 0.00 | 34 | 1028.1 |
| 20260906173003 | 75 | 175 | 3.5 | 12.2 | 0.00 | 0.00 | 0.00 | 35 | 1028.1 |
| 20260906171505 | 77 | 110 | 6.1 | 13.0 | 0.00 | 0.00 | 0.00 | 32 | 1028.2 |
| 20260906170015 | 77 | 103 | 4.3 | 9.6 | 0.00 | 0.00 | 0.00 | 32 | 1028.4 |
| 20260906164506 | 76 | 174 | 2.6 | 9.6 | 0.00 | 0.00 | 0.00 | 33 | 1028.5 |
| 20260906163003 | 74 | 138 | 1.7 | 7.0 | 0.00 | 0.00 | 0.00 | 34 | 1028.3 |
| 20260906161504 | 72 | 15 | 2.6 | 9.6 | 0.00 | 0.00 | 0.00 | 34 | 1028.4 |
| 20260906160006 | 71 | 20 | 2.6 | 8.7 | 0.00 | 0.00 | 0.00 | 36 | 1028.4 |
| 20260906154515 | 70 | 346 | 3.5 | 7.8 | 0.00 | 0.00 | 0.00 | 39 | 1028.3 |
| 20260906153003 | 68 | 15 | 2.6 | 7.0 | 0.00 | 0.00 | 0.00 | 39 | 1028.6 |
| 20260906151510 | 67 | 341 | 2.6 | 5.2 | 0.00 | 0.00 | 0.00 | 41 | 1028.8 |
| 20260906150009 | 66 | 360 | 2.6 | 4.3 | 0.00 | 0.00 | 0.00 | 43 | 1028.8 |
| 20260906144506 | 64 | 26 | 0.9 | 2.6 | 0.00 | 0.00 | 0.00 | 45 | 1028.8 |
| 20260906143005 | 63 | 300 | 1.7 | 4.3 | 0.00 | 0.00 | 0.00 | 47 | 1028.7 |
| 20260906141524 | 62 | 355 | 0.9 | 3.5 | 0.00 | 0.00 | 0.00 | 48 | 1028.6 |
| 20260906140011 | 61 | 286 | 0.0 | 0.0 | 0.00 | 0.00 | 0.00 | 48 | 1028.6 |
| 20260906134535 | 61 | 286 | 0.0 | 0.0 | 0.00 | 0.00 | 0.00 | 47 | 1028.5 |
| 20260906133010 | 60 | 285 | 0.0 | 0.0 | 0.00 | 0.00 | 0.00 | 48 | 1028.4 |
| 20260906131509 | 59 | 286 | 0.0 | 2.6 | 0.00 | 0.00 | 0.00 | 50 | 1028.1 |
| 20260906130008 | 59 | 311 | 1.7 | 4.3 | 0.00 | 0.00 | 0.00 | 50 | 1028.0 |
| 20260906124507 | 59 | 10 | 1.7 | 3.5 | 0.00 | 0.00 | 0.00 | 51 | 1027.9 |
| 20260906123027 | 59 | 344 | 0.0 | 4.3 | 0.00 | 0.00 | 0.00 | 51 | 1027.8 |
| 20260906121522 | 59 | 349 | 1.7 | 4.3 | 0.00 | 0.00 | 0.00 | 51 | 1027.8 |
| 20260906120009 | 59 | 352 | 3.5 | 6.1 | 0.00 | 0.00 | 0.00 | 51 | 1027.9 |
| 20260906114511 | 59 | 351 | 2.6 | 7.0 | 0.00 | 0.00 | 0.00 | 52 | 1027.9 |
| 20260906113008 | 59 | 304 | 2.6 | 5.2 | 0.00 | 0.00 | 0.00 | 52 | 1027.9 |
| 20260906111515 | 59 | 307 | 0.9 | 3.5 | 0.00 | 0.00 | 0.00 | 52 | 1027.9 |
| 20260906110032 | 59 | 344 | 0.9 | 2.6 | 0.00 | 0.00 | 0.00 | 52 | 1027.9 |
| 20260906104532 | 59 | 19 | 0.0 | 4.3 | 0.00 | 0.00 | 0.00 | 53 | 1027.9 |
| 20260906103028 | 58 | 19 | 2.6 | 4.3 | 0.00 | 0.00 | 0.00 | 53 | 1027.9 |
| 20260906101504 | 58 | 331 | 2.6 | 4.3 | 0.00 | 0.00 | 0.00 | 54 | 1027.8 |
| 20260906100012 | 58 | 296 | 0.9 | 7.0 | 0.00 | 0.00 | 0.00 | 54 | 1028.0 |
| 20260906094504 | 58 | 340 | 3.5 | 7.0 | 0.00 | 0.00 | 0.00 | 55 | 1028.0 |
| 20260906093006 | 59 | 355 | 2.6 | 4.3 | 0.00 | 0.00 | 0.00 | 54 | 1028.1 |
| 20260906091504 | 59 | 351 | 0.9 | 2.6 | 0.00 | 0.00 | 0.00 | 53 | 1027.9 |
| 20260906090006 | 59 | 18 | 0.9 | 6.1 | 0.00 | 0.00 | 0.00 | 52 | 1027.9 |
| 20260906084510 | 60 | 269 | 0.9 | 5.2 | 0.00 | 0.00 | 0.00 | 52 | 1027.9 |
| 20260906083012 | 60 | 138 | 0.0 | 0.0 | 0.00 | 0.00 | 0.00 | 51 | 1028.0 |
| 20260906081504 | 60 | 138 | 0.0 | 2.6 | 0.00 | 0.00 | 0.00 | 51 | 1028.1 |
| 20260906080008 | 60 | 138 | 1.7 | 3.5 | 0.00 | 0.00 | 0.00 | 51 | 1028.3 |
| 20260906074504 | 60 | 355 | 0.0 | 2.6 | 0.00 | 0.00 | 0.00 | 52 | 1028.3 |
| 20260906073007 | 60 | 355 | 0.9 | 4.3 | 0.00 | 0.00 | 0.00 | 52 | 1028.3 |
| 20260906071525 | 60 | 312 | 2.6 | 8.7 | 0.00 | 0.00 | 0.00 | 52 | 1028.2 |
| 20260906070004 | 61 | 65 | 0.0 | 2.6 | 0.00 | 0.00 | 0.00 | 50 | 1028.1 |
| 20260906064514 | 62 | 150 | 1.7 | 3.5 | 0.00 | 0.00 | 0.00 | 48 | 1028.4 |
| 20260906063010 | 63 | 94 | 0.9 | 5.2 | 0.00 | 0.00 | 0.00 | 47 | 1028.7 |
| 20260906061508 | 64 | 136 | 1.7 | 5.2 | 0.00 | 0.00 | 0.00 | 46 | 1028.6 |
| 20260906060010 | 63 | 128 | 3.5 | 7.0 | 0.00 | 0.00 | 0.00 | 46 | 1028.4 |
| 20260906054530 | 63 | 146 | 2.6 | 5.2 | 0.00 | 0.00 | 0.00 | 47 | 1028.7 |
| 20260906053011 | 63 | 109 | 1.7 | 3.5 | 0.00 | 0.00 | 0.00 | 47 | 1028.6 |
| 20260906051518 | 64 | 126 | 0.9 | 7.0 | 0.00 | 0.00 | 0.00 | 46 | 1028.6 |
| 20260906050003 | 64 | 171 | 4.3 | 9.6 | 0.00 | 0.00 | 0.00 | 46 | 1028.5 |
| 20260906044512 | 63 | 171 | 6.1 | 9.6 | 0.00 | 0.00 | 0.00 | 50 | 1028.5 |
| 20260906043007 | 62 | 352 | 0.9 | 7.8 | 0.00 | 0.00 | 0.00 | 51 | 1028.2 |
| 20260906041508 | 62 | 293 | 3.5 | 7.8 | 0.00 | 0.00 | 0.00 | 50 | 1028.2 |
| 20260906040020 | 62 | 291 | 1.7 | 7.0 | 0.00 | 0.00 | 0.00 | 52 | 1028.2 |
| 20260906034520 | 62 | 286 | 4.3 | 7.8 | 0.00 | 0.00 | 0.00 | 51 | 1028.4 |
| 20260906033013 | 62 | 282 | 4.3 | 7.0 | 0.00 | 0.00 | 0.00 | 51 | 1028.4 |
| 20260906031513 | 62 | 274 | 1.7 | 7.0 | 0.00 | 0.00 | 0.00 | 51 | 1028.3 |
| 20260906030011 | 63 | 284 | 3.5 | 7.0 | 0.00 | 0.00 | 0.00 | 50 | 1028.2 |
| 20260906024518 | 64 | 277 | 4.3 | 7.8 | 0.00 | 0.00 | 0.00 | 49 | 1028.1 |
| 20260906023030 | 64 | 292 | 3.5 | 7.8 | 0.00 | 0.00 | 0.00 | 48 | 1028.0 |
| 20260906021504 | 64 | 242 | 2.6 | 5.2 | 0.00 | 0.00 | 0.00 | 49 | 1028.1 |
| 20260906020004 | 64 | 298 | 2.6 | 8.7 | 0.00 | 0.00 | 0.00 | 48 | 1027.8 |
| 20260906014503 | 64 | 276 | 3.5 | 7.8 | 0.00 | 0.00 | 0.00 | 48 | 1027.9 |
| 20260906013021 | 65 | 234 | 3.5 | 9.6 | 0.00 | 0.00 | 0.00 | 47 | 1027.9 |
| 20260906011502 | 66 | 265 | 4.3 | 7.8 | 0.00 | 0.00 | 0.00 | 45 | 1027.9 |
| 20260906010007 | 67 | 34 | 0.9 | 7.8 | 0.00 | 0.00 | 0.00 | 44 | 1027.8 |
| 20260906004504 | 68 | 154 | 7.8 | 15.6 | 0.00 | 0.00 | 0.00 | 41 | 1028.3 |
| 20260906003003 | 69 | 154 | 3.5 | 7.0 | 0.00 | 0.00 | 0.00 | 42 | 1028.7 |
| 20260906001502 | 69 | 12 | 4.3 | 7.8 | 0.00 | 0.00 | 0.00 | 41 | 1028.4 |
| 20260906000004 | 70 | 338 | 3.5 | 9.6 | 0.00 | 0.00 | 0.00 | 40 | 1028.3 |
| 20260905234508 | 70 | 360 | 7.8 | 13.0 | 0.00 | 0.00 | 0.00 | 39 | 1028.2 |
| 20260905233015 | 70 | 360 | 11.3 | 13.9 | 0.00 | 0.00 | 0.00 | 39 | 1028.1 |
| 20260905231503 | 69 | 108 | 7.8 | 12.2 | 0.00 | 0.00 | 0.00 | 38 | 1028.0 |
| 20260905230004 | 70 | 140 | 7.0 | 13.9 | 0.00 | 0.00 | 0.00 | 40 | 1027.9 |
| 20260905224504 | 72 | 145 | 8.7 | 21.7 | 0.00 | 0.00 | 0.00 | 36 | 1027.6 |
| 20260905223006 | 74 | 139 | 4.3 | 8.7 | 0.00 | 0.00 | 0.00 | 31 | 1027.4 |
| 20260905221529 | 75 | 159 | 0.9 | 7.0 | 0.00 | 0.00 | 0.00 | 30 | 1027.4 |